LEBL Weather Reports


time (UTC)temp
C
wind
direction
speed
KPH
gust
KPH
rain 1hr
cm
rain 24hr
cm
rain mn
cm
humidity
%
barometer
mb
20260510113004 20 230 33.8 0.0 0.00 0.00 0.00 77 1013.0
20260510110005 20 230 3.2 0.0 0.00 0.00 0.00 72 1013.0
20260510103004 18 230 33.8 0.0 0.00 0.00 0.00 82 1013.0
20260510101504 18 230 33.8 0.0 0.00 0.00 0.00 82 1013.0
20260510094504 18 240 33.8 0.0 0.00 0.00 0.00 77 1013.0
20260510093004 17 240 29.0 0.0 0.00 0.00 0.00 82 1013.0
20260510090004 17 240 27.4 0.0 0.00 0.00 0.00 88 1013.0
20260510084503 17 240 27.4 0.0 0.00 0.00 0.00 88 1013.0
20260510083004 17 240 25.7 0.0 0.00 0.00 0.00 82 1012.0
20260510081504 17 240 25.7 0.0 0.00 0.00 0.00 82 1012.0
20260510080005 17 250 24.1 0.0 0.00 0.00 0.00 93 1012.0
20260510071504 16 250 1.6 0.0 0.00 0.00 0.00 93 1012.0
20260510070005 15 0 3.2 0.0 0.00 0.00 0.00 93 1012.0
20260510064504 15 0 3.2 0.0 0.00 0.00 0.00 93 1012.0
20260510063004 13 20 4.8 0.0 0.00 0.00 0.00 100 1012.0
20260510061504 13 20 4.8 0.0 0.00 0.00 0.00 100 1012.0
20260510053004 12 0 1.6 0.0 0.00 0.00 0.00 100 1012.0
20260510051504 12 0 1.6 0.0 0.00 0.00 0.00 100 1012.0
20260510050005 12 340 9.7 0.0 0.00 0.00 0.00 100 1012.0
20260510044503 12 340 9.7 0.0 0.00 0.00 0.00 100 1012.0
20260510043004 12 320 12.9 0.0 0.00 0.00 0.00 100 1012.0
20260510033004 12 310 11.3 0.0 0.00 0.00 0.00 100 1013.0
20260510030004 12 280 8.0 0.0 0.00 0.00 0.00 100 1013.0
20260510024504 12 280 8.0 0.0 0.00 0.00 0.00 100 1013.0
20260510023005 12 300 9.7 0.0 0.00 0.00 0.00 100 1012.0
20260510021504 12 300 9.7 0.0 0.00 0.00 0.00 100 1012.0
20260510014504 12 330 8.0 0.0 0.00 0.00 0.00 100 1012.0
20260510011504 13 330 9.7 0.0 0.00 0.00 0.00 100 1013.0
20260510010004 13 330 9.7 0.0 0.00 0.00 0.00 100 1013.0
20260510004503 13 330 9.7 0.0 0.00 0.00 0.00 100 1013.0
20260510003005 13 310 9.7 0.0 0.00 0.00 0.00 100 1013.0
20260510001504 13 310 9.7 0.0 0.00 0.00 0.00 100 1013.0
20260510000004 15 300 11.3 0.0 0.00 0.00 0.00 93 1013.0
20260509234503 15 300 11.3 0.0 0.00 0.00 0.00 93 1013.0
20260509233004 15 310 8.0 0.0 0.00 0.00 0.00 93 1013.0
20260509231504 15 310 8.0 0.0 0.00 0.00 0.00 93 1013.0
20260509224504 15 310 8.0 0.0 0.00 0.00 0.00 93 1013.0
20260509223005 15 300 4.8 0.0 0.00 0.00 0.00 100 1013.0
20260509221504 15 300 4.8 0.0 0.00 0.00 0.00 100 1013.0
20260509220007 15 290 8.0 0.0 0.00 0.00 0.00 100 1013.0
20260509214503 15 290 8.0 0.0 0.00 0.00 0.00 100 1013.0
20260509213004 15 290 9.7 0.0 0.00 0.00 0.00 93 1013.0
20260509211504 15 290 9.7 0.0 0.00 0.00 0.00 93 1013.0
20260509210004 16 0 3.2 0.0 0.00 0.00 0.00 87 1012.0
20260509204503 16 0 3.2 0.0 0.00 0.00 0.00 87 1012.0
20260509203003 16 0 3.2 0.0 0.00 0.00 0.00 87 1012.0
20260509194504 15 290 1.6 0.0 0.00 0.00 0.00 93 1012.0
20260509193004 15 60 4.8 0.0 0.00 0.00 0.00 93 1011.0
20260509191503 15 60 4.8 0.0 0.00 0.00 0.00 93 1011.0
20260509190004 15 60 1.6 0.0 0.00 0.00 0.00 100 1010.0
20260509184503 15 60 1.6 0.0 0.00 0.00 0.00 100 1010.0
20260509183004 15 40 1.6 0.0 0.00 0.00 0.00 93 1010.0
20260509181504 15 40 1.6 0.0 0.00 0.00 0.00 93 1010.0
20260509180005 15 40 19.3 0.0 0.00 0.00 0.00 93 1010.0
20260509173004 15 50 12.9 0.0 0.00 0.00 0.00 93 1012.0
20260509171504 15 50 12.9 0.0 0.00 0.00 0.00 93 1012.0
20260509170005 16 80 11.3 0.0 0.00 0.00 0.00 93 1013.0
20260509164503 16 80 11.3 0.0 0.00 0.00 0.00 93 1013.0
20260509163004 17 100 9.7 0.0 0.00 0.00 0.00 88 1013.0
20260509161504 17 100 9.7 0.0 0.00 0.00 0.00 88 1013.0
20260509154504 16 50 19.3 0.0 0.00 0.00 0.00 87 1011.0
20260509153004 16 70 37.0 0.0 0.00 0.00 0.00 100 1009.0
20260509151503 16 70 37.0 0.0 0.00 0.00 0.00 100 1009.0
20260509150004 16 80 29.0 0.0 0.00 0.00 0.00 93 1011.0
20260509144504 16 80 29.0 0.0 0.00 0.00 0.00 93 1011.0
20260509143004 17 80 20.9 0.0 0.00 0.00 0.00 93 1012.0
20260509141504 17 80 20.9 0.0 0.00 0.00 0.00 93 1012.0
20260509134504 17 70 20.9 0.0 0.00 0.00 0.00 77 1012.0
20260509133004 18 60 25.7 0.0 0.00 0.00 0.00 77 1011.0
20260509124503 17 50 24.1 0.0 0.00 0.00 0.00 82 1012.0
20260509123004 17 70 24.1 0.0 0.00 0.00 0.00 77 1013.0
20260509121504 17 70 24.1 0.0 0.00 0.00 0.00 77 1013.0
20260509120004 18 80 22.5 0.0 0.00 0.00 0.00 72 1013.0
20260509114503 18 80 22.5 0.0 0.00 0.00 0.00 72 1013.0